[[{"header":{"parameterUnit":"m.s-1","parameterCategory":1,"la1":30.2991,"la2":30.254,"lo1":-89.0895,"lo2":-89.0444,"dy":0.0017,"dx":0.0017,"nx":28,"ny":28,"refTime":"2025-04-26T09:00:00:Z","depth":0,"parameterNumber":2,"parameterNumberName":"U-component_of_WINDS"},"data":[0,0,0,0,0,0,0,0,0,0,0,0,0,0,0,0,0,0,0,0,0,0,0,0,0,0,0,0,0,0,0,0,0,0,0,0,0,0,0,0,0,0,0,0,0,0,0,0,0,0,0,0,0,0,0,0,0,0,1.2705,1.2706,0,1.2764,1.2764,1.2765,1.2745,1.2744,1.2743,1.2741,1.2806,1.2809,1.2811,0,0,0,0,0,0,0,0,0,0,0,0,0,1.2578,1.2581,1.2705,1.2706,1.2706,1.2764,1.2764,1.2765,1.2745,1.2744,1.2742,1.2741,1.2805,1.2808,1.2812,0,0,0,0,0,0,0,0,0,0,0,0,0,1.2635,1.2581,1.2705,1.2703,1.2704,1.2763,1.2764,1.2765,1.2746,1.2744,1.2742,1.274,1.2804,1.2808,1.2812,1.2878,0,0,1.2826,1.2827,0,0,0,0,0,0,0,0,1.2632,1.264,1.2703,1.2704,1.2704,1.2745,1.2743,1.2803,1.2746,1.273,1.2741,1.2739,1.2787,1.2793,1.2808,1.2881,1.2884,1.2826,1.2829,1.283,1.2832,0,0,0,0,0,0,0,1.2628,1.2637,1.2728,1.2704,1.2705,1.27,1.2706,1.2755,1.2769,1.2731,1.273,1.2737,1.2787,1.2804,1.281,1.2885,1.2826,1.283,1.2832,1.2834,1.3012,1.3014,0,0,0,0,0,0,1.2623,1.2634,1.2726,1.273,1.2662,1.2704,1.2711,1.2734,1.2768,1.2772,1.2738,1.2736,1.2798,1.2805,1.2812,1.2889,1.283,1.2835,1.2837,1.301,1.3013,1.3015,0,0,0,0,0,0,1.262,1.2631,1.2724,1.2682,1.2693,1.2709,1.2735,1.2736,1.2753,1.2774,1.2777,1.2753,1.2796,1.2806,1.2861,1.2891,1.2837,1.2841,1.3008,1.3011,1.3014,1.3046,0,0,0,0,0,0,1.2617,1.2631,1.2655,1.2682,1.2695,1.2771,1.2736,1.2739,1.276,1.2757,1.2788,1.2791,1.2796,1.2854,1.2865,1.2896,1.2844,1.3005,1.3009,1.3013,1.3042,1.305,1.3056,0,0,0,0,0,1.2612,1.2664,1.2657,1.2668,1.2726,1.2773,1.2781,1.2783,1.2762,1.2787,1.2801,1.279,1.2887,1.286,1.2872,1.2905,1.3003,1.3008,1.3013,1.3039,1.3048,1.3056,0,0,0,0,0,0,1.2642,1.2667,1.266,1.2721,1.2745,1.277,1.2801,1.2794,1.2825,1.2821,1.2824,1.2832,1.2888,1.2902,1.2873,1.297,1.2942,1.2949,1.2958,1.2967,1.2974,1.2969,1.2848,0,0,0,0,0,1.2655,1.269,1.2711,1.2763,1.2775,1.2786,1.2807,1.2806,1.2832,1.2842,1.286,1.2886,1.2921,1.2945,1.298,1.3045,1.305,1.3073,1.308,1.3086,1.3092,1.3125,1.3135,1.3031,1.3031,1.303,0,0,1.2684,1.2702,1.2724,1.2769,1.2787,1.2824,1.2795,1.2835,1.2862,1.2849,1.2901,1.2915,1.2944,1.3004,1.3031,1.3018,1.3122,1.3092,1.3096,1.3099,1.3131,1.3141,1.315,1.3034,1.3033,1.3033,0,0,1.2753,1.2771,1.2815,1.2834,1.2861,1.2868,1.2878,1.2904,1.2912,1.2964,1.2954,1.2987,1.3049,1.307,1.3089,1.3164,1.3155,1.3176,1.3212,1.3244,1.3253,1.326,1.3285,1.3294,1.3182,1.3182,1.3182,0,1.2786,1.2839,1.2839,1.2879,1.2899,1.2887,1.2931,1.295,1.2988,1.3002,1.2986,1.3062,1.3082,1.3145,1.3163,1.3179,1.3191,1.3171,1.3251,1.3259,1.3265,1.3289,1.3299,1.3184,1.3184,1.3183,1.3183,0,1.2876,1.2913,1.2945,1.298,1.3003,1.3046,1.3053,1.3077,1.3074,1.3083,1.3135,1.3158,1.3195,1.3211,1.321,1.3273,1.3264,1.325,1.3222,1.3277,1.33,1.3309,1.3187,1.3186,1.3186,1.3185,0,0,1.2966,1.2999,1.301,1.3025,1.3053,1.3083,1.3124,1.3159,1.3179,1.3206,1.324,1.3292,1.3278,1.3299,1.3301,1.3329,1.3385,1.3312,1.3312,1.3323,1.3455,1.3464,1.3475,1.338,1.3382,1.3383,1.3452,0,1.3037,1.3107,1.3108,1.3174,1.3207,1.3196,1.3232,1.3253,1.3262,1.3293,1.3304,1.3339,1.332,1.3332,1.336,1.3372,1.3412,1.3368,1.3412,1.3413,1.3403,1.3487,1.3497,1.3561,1.3461,1.3462,1.3463,0,1.3128,1.3155,1.3223,1.3245,1.3259,1.3291,1.3322,1.3351,1.3376,1.338,1.3403,1.3399,1.3442,1.3413,1.3471,1.3441,1.3459,1.3468,1.3471,1.3474,1.3441,1.3491,1.3581,1.359,1.3478,1.3477,1.3476,0,1.3185,1.3238,1.3285,1.3298,1.3325,1.3348,1.3361,1.3383,1.3403,1.3431,1.3444,1.3477,1.3495,1.3521,1.3526,1.3505,1.3584,1.3556,1.3589,1.3588,1.3605,1.3603,1.3698,1.3619,1.3619,1.3619,1.3619,0,1.3262,1.3304,1.331,1.3339,1.3385,1.3386,1.3432,1.3443,1.3463,1.3494,1.3487,1.3516,1.3523,1.3553,1.3559,1.3605,1.3614,1.3618,1.3619,1.3618,1.3617,1.3629,1.3624,1.3622,1.3621,1.3621,1.362,0,1.3333,1.3339,1.3389,1.3409,1.3416,1.3448,1.3467,1.3494,1.3502,1.3541,1.355,1.3563,1.3599,1.3607,1.3651,1.3654,1.3708,1.3705,1.3699,1.3698,1.373,1.3726,1.3834,1.3847,1.3761,1.3762,1.3763,0,1.3381,1.3412,1.3436,1.3455,1.3468,1.3499,1.3519,1.3521,1.3543,1.3571,1.3595,1.363,1.3657,1.3715,1.3729,1.3762,1.3759,1.3794,1.3764,1.3761,1.3757,1.3754,1.3757,1.38,1.3801,1.3801,1.3802,0,1.3465,1.3466,1.3494,1.3523,1.3546,1.3569,1.3592,1.3608,1.3614,1.3638,1.3673,1.3694,1.3737,1.3771,1.3803,1.3817,1.3811,1.3812,1.382,1.3819,1.3813,1.3815,1.3713,1.3809,1.3808,1.3808,1.3807,1.3807,1.3525,1.3551,1.3571,1.3602,1.3618,1.3639,1.3665,1.3675,1.3704,1.3737,1.3737,1.3775,1.3798,1.384,1.3856,1.3887,1.3876,1.3889,1.3892,1.3895,1.3897,1.381,1.3893,1.3893,1.3893,1.3892,1.3892,0,1.3607,1.3619,1.3647,1.3677,1.3701,1.3691,1.3715,1.3736,1.3769,1.379,1.3816,1.3856,1.3889,1.3904,1.3937,1.3958,1.3956,1.3966,1.3964,1.3967,1.3906,1.3894,1.3968,1.3968,1.3967,1.3967,1.3967,1.3967,1.3653,1.3696,1.3699,1.375,1.3762,1.3798,1.3812,1.383,1.3847,1.3891,1.3917,1.3926,1.3945,1.3978,1.4008,1.4011,1.4023,1.4035,1.4037,1.3979,1.3972,1.3964,1.3953,1.4038,1.4038,1.4096,1.4096,1.4097]},{"header":{"parameterUnit":"m.s-1","parameterCategory":1,"la1":30.2991,"la2":30.254,"lo1":-89.0895,"lo2":-89.0444,"dy":0.0017,"dx":0.0017,"nx":28,"ny":28,"refTime":"2025-04-26T09:00:00:Z","depth":0,"parameterNumber":3,"parameterNumberName":"V-component_of_WINDS"},"data":[0,0,0,0,0,0,0,0,0,0,0,0,0,0,0,0,0,0,0,0,0,0,0,0,0,0,0,0,0,0,0,0,0,0,0,0,0,0,0,0,0,0,0,0,0,0,0,0,0,0,0,0,0,0,0,0,0,0,1.8262,1.8262,0,1.8261,1.8261,1.8261,1.8229,1.8228,1.8227,1.8226,1.8225,1.8226,1.8227,0,0,0,0,0,0,0,0,0,0,0,0,0,1.8235,1.8235,1.8262,1.8262,1.8262,1.8261,1.8261,1.8261,1.8229,1.8228,1.8227,1.8226,1.8225,1.8226,1.8227,0,0,0,0,0,0,0,0,0,0,0,0,0,1.8241,1.8235,1.8262,1.8246,1.8244,1.8261,1.8261,1.8261,1.8229,1.8228,1.8227,1.8225,1.8225,1.8226,1.8227,1.8259,0,0,1.8231,1.8231,0,0,0,0,0,0,0,0,1.8241,1.8242,1.8248,1.8247,1.8245,1.8244,1.8251,1.826,1.8229,1.8235,1.8226,1.8225,1.8233,1.8233,1.8236,1.8259,1.8259,1.8231,1.8231,1.8232,1.8232,0,0,0,0,0,0,0,1.8241,1.8242,1.8261,1.8248,1.8246,1.8238,1.8238,1.8253,1.8241,1.8234,1.8232,1.8232,1.8231,1.8235,1.8235,1.8259,1.8231,1.8232,1.8232,1.8233,1.8307,1.8308,0,0,0,0,0,0,1.8242,1.8242,1.8261,1.8261,1.824,1.824,1.8239,1.8245,1.824,1.8238,1.8233,1.8231,1.8233,1.8234,1.8235,1.8271,1.8232,1.8233,1.8234,1.8306,1.8307,1.8309,0,0,0,0,0,0,1.8242,1.8244,1.8261,1.8251,1.8253,1.8241,1.8249,1.8246,1.8249,1.824,1.8237,1.8239,1.8232,1.8234,1.8253,1.827,1.8233,1.8234,1.8304,1.8306,1.8308,1.8343,0,0,0,0,0,0,1.8241,1.8244,1.8257,1.8252,1.8253,1.8279,1.825,1.8247,1.8251,1.8248,1.8244,1.8242,1.8231,1.8252,1.8254,1.8271,1.8235,1.8303,1.8305,1.8308,1.8341,1.8346,1.8351,0,0,0,0,0,1.824,1.8267,1.8257,1.826,1.8268,1.8281,1.8281,1.8268,1.8253,1.8264,1.8258,1.8242,1.8268,1.8254,1.8256,1.8274,1.8302,1.8305,1.8307,1.8338,1.8345,1.8351,0,0,0,0,0,0,1.8274,1.8266,1.8255,1.8281,1.8282,1.8275,1.829,1.8276,1.8282,1.8278,1.8262,1.8261,1.8283,1.8281,1.8265,1.8304,1.8282,1.8286,1.8305,1.8311,1.8316,1.8316,1.8236,0,0,0,0,0,1.8285,1.8296,1.8288,1.8311,1.8312,1.8301,1.8306,1.8296,1.8296,1.8296,1.8291,1.8292,1.83,1.8306,1.8313,1.8341,1.8339,1.8354,1.8359,1.8364,1.8367,1.838,1.8386,1.8318,1.8318,1.8318,0,0,1.8307,1.8303,1.8311,1.8318,1.8317,1.8328,1.8301,1.8315,1.8322,1.8298,1.8315,1.8312,1.8312,1.8335,1.8345,1.8334,1.8385,1.8368,1.8371,1.8371,1.8383,1.839,1.8395,1.832,1.832,1.832,0,0,1.8352,1.8351,1.8369,1.8369,1.8368,1.8361,1.8365,1.8361,1.8357,1.8375,1.8356,1.8366,1.8381,1.838,1.8382,1.8427,1.8412,1.843,1.8457,1.847,1.8475,1.848,1.8494,1.85,1.8433,1.8433,1.8433,0,1.8378,1.8394,1.8381,1.8395,1.8397,1.8376,1.8394,1.8395,1.8397,1.8399,1.8386,1.8404,1.8402,1.8424,1.8435,1.8438,1.8442,1.8429,1.8476,1.848,1.8484,1.8498,1.8503,1.8435,1.8435,1.8435,1.8435,0,1.8427,1.8438,1.8453,1.8455,1.846,1.8476,1.8464,1.8471,1.846,1.8454,1.8472,1.8469,1.8474,1.8479,1.847,1.85,1.8493,1.8479,1.8456,1.8493,1.8505,1.851,1.8438,1.8437,1.8437,1.8436,0,0,1.8492,1.8486,1.8491,1.8491,1.8489,1.8497,1.8512,1.8518,1.8523,1.8525,1.8536,1.8549,1.8535,1.8538,1.8528,1.854,1.8573,1.8523,1.8523,1.8531,1.8605,1.8615,1.8621,1.8564,1.8565,1.8566,1.8604,0,1.8534,1.8559,1.8547,1.8573,1.8582,1.8562,1.8575,1.8575,1.8569,1.8576,1.8571,1.8579,1.8561,1.8562,1.8573,1.8567,1.8587,1.8564,1.8573,1.8574,1.8572,1.8628,1.8638,1.8675,1.8609,1.861,1.8611,0,1.8586,1.859,1.8617,1.8611,1.8615,1.8627,1.863,1.8638,1.8637,1.8632,1.8634,1.8621,1.8635,1.8614,1.8632,1.8616,1.862,1.8617,1.8618,1.8617,1.8593,1.8627,1.8687,1.8692,1.8619,1.8618,1.8617,0,1.8629,1.8641,1.8658,1.8659,1.8654,1.8662,1.866,1.8658,1.8662,1.8665,1.8667,1.8672,1.8674,1.8679,1.8667,1.8653,1.8687,1.8664,1.8682,1.8682,1.8689,1.8688,1.8748,1.8694,1.8694,1.8694,1.8693,0,1.8676,1.8693,1.8677,1.8687,1.8706,1.8691,1.871,1.8706,1.8704,1.8713,1.8697,1.8705,1.8691,1.8698,1.8689,1.8705,1.8707,1.8702,1.87,1.8703,1.8703,1.8704,1.87,1.8695,1.8695,1.8694,1.8694,0,1.8726,1.8717,1.8734,1.8727,1.8726,1.8739,1.8734,1.8743,1.8736,1.8748,1.875,1.874,1.8747,1.8737,1.8744,1.8738,1.8759,1.8753,1.8759,1.8757,1.8774,1.8772,1.8835,1.8842,1.8785,1.8785,1.8786,0,1.8756,1.8769,1.8763,1.8768,1.8767,1.8775,1.8778,1.8765,1.8769,1.8769,1.8778,1.8784,1.8788,1.8802,1.8795,1.88,1.8793,1.8815,1.8793,1.8796,1.8791,1.879,1.879,1.8819,1.8819,1.882,1.882,0,1.881,1.8804,1.881,1.8813,1.8818,1.882,1.8821,1.8826,1.8812,1.8818,1.8825,1.8828,1.8835,1.8841,1.8844,1.8842,1.8829,1.8827,1.8831,1.8834,1.8836,1.8834,1.8769,1.8825,1.8825,1.8825,1.8824,1.8824,1.8849,1.8859,1.8856,1.8863,1.8862,1.8863,1.8871,1.8866,1.8872,1.8875,1.8868,1.8877,1.8875,1.8878,1.8877,1.8884,1.8874,1.8881,1.8882,1.8883,1.8885,1.8836,1.8885,1.8885,1.8885,1.8884,1.8884,0,1.89,1.8898,1.8904,1.8905,1.891,1.8898,1.8898,1.8903,1.8911,1.8911,1.8915,1.8923,1.8929,1.8923,1.8927,1.8934,1.8928,1.8935,1.8934,1.8933,1.8894,1.889,1.894,1.894,1.894,1.894,1.894,1.894,1.8927,1.8942,1.8936,1.895,1.8948,1.8956,1.8957,1.8958,1.8958,1.8967,1.8972,1.8968,1.8965,1.8969,1.8973,1.8971,1.8973,1.8982,1.8978,1.8942,1.8936,1.8931,1.8926,1.8983,1.8983,1.9016,1.9016,1.9017]}]]